SES-11 (ECHOSTAR 105) (42967 NORAD) Tracking and Keplerian Element Data

This shows tracking and keplerian element data for the satellite.

Feedback or suggestion? Click here.




ElementValue
Catalog42967
NameSES-11 (ECHOSTAR 105)
Epoch Orbit1440
Epoch Day258.61736098
Epoch Year2021
RAAN277.1937
Inclination0.0427
Eccentricity0.0002494
Argument of Perigee261.3977
Mean Anonmoly293.498
Mean Motion1.0027162
Decay Rate-1.09E-06
L11 42967U 17063A 21258.61736098 -.00000109 00000-0 00000+0 0 9993
L22 42967 0.0427 277.1937 0002494 261.3977 293.4980 1.00271620 14406

Live tracking and technical data element details for SES-11 (ECHOSTAR 105) (NORAD 42967). SES-11 (ECHOSTAR 105) can be tracked NOW for your location showing map with azimuth and elevation plus other details from your city location.

Track the satellite on the map from your city or location and see movement details for azimuth, elevation, latitude, longitude, range, height, and movement on the map or in text.







IsCatalogInMostPopularTable: catalog: 42967, numindb: 649
Update: records affected: 1



GetName: 42967 SES-11 (ECHOSTAR 105)

Hit Count: updated at: Sat, 18 Sep 2021 10:17:49 GMT